Andrews AFB, MD

4:18 PM EST on January 20, 2018 (GMT -0500)
Andrews Air Force Base-Naf

Weather History for KADW - August, 2013

Change the Weather History Date:

Thursday, August 29, 2013

  Actual Average Record
Temperature  
Mean Temperature 77 °F -  
Max Temperature 83 °F 80 °F 93 °F (2006)
Min Temperature 69 °F 62 °F 54 °F (2014)
Cooling Degree Days 12    
Growing Degree Days 27 (Base 50)    
Moisture  
Dew Point 71 °F    
Average Humidity 92    
Maximum Humidity 100    
Minimum Humidity 57    
Precipitation  
Precipitation 0.01 in - - ()
Sea Level Pressure  
Sea Level Pressure 29.94 in    
Wind  
Wind Speed 6 mph (NE)    
Max Wind Speed 13 mph    
Max Gust Speed -    
Visibility 7 miles    
Events Rain    
Averages and records for this station are not official NWS values.
T = Trace of Precipitation, MM = Missing Value Source: NWS Daily Summary

Daily Weather History Graph

Daily Weather History Graph

Search for Another Location

Airport or City:

Trip Planner

Search our weather history database for the weather conditions in past years. The results will help you decide how hot, cold, wet, or windy it might be!

Date:

Astronomy

Aug. 29, 2013 Rise Set
Actual Time 6:34 AM EDT 7:41 PM EDT
Civil Twilight 6:06 AM EDT 8:09 PM EDT
Nautical Twilight 5:33 AM EDT 8:41 PM EDT
Astronomical Twilight 4:59 AM EDT 9:15 PM EDT
Moon 12:25 AM EDT (8/29) 3:07 PM EDT (8/29)
Length of Visible Light 14h 02m
Length of Day
13h 07m
Last Quarter, 38% of the Moon is Illuminated
Aug 29
Last Quarter
Sep 5
New
Sep 12
First Quarter
Sep 19
Full
Sep 26
Last Quarter

Hourly Weather History & Observations

Time (EDT) Temp. Heat Index Dew Point Humidity Pressure Visibility Wind Dir Wind Speed Gust Speed Precip Events Conditions
12:03 AM 73.4 °F - 71.6 °F 94% 29.84 in 3.0 mi Calm Calm - N/A   Overcast
12:13 AM 71.6 °F - 71.6 °F 100% 29.85 in 4.0 mi East 2.3 mph - N/A   Overcast
12:58 AM 72.1 °F - 72.0 °F 99% 29.87 in 2.0 mi NE 4.6 mph - N/A   Overcast
1:03 AM 71.6 °F - 71.6 °F 100% 29.86 in 1.8 mi NE 3.5 mph - N/A   Overcast
1:08 AM 71.6 °F - 71.6 °F 100% 29.86 in 2.5 mi NNE 4.6 mph - N/A   Overcast
1:13 AM 71.6 °F - 71.6 °F 100% 29.86 in 4.0 mi NE 3.5 mph - N/A   Overcast
1:53 AM 71.6 °F - 71.6 °F 100% 29.85 in 4.0 mi North 3.5 mph - N/A   Overcast
1:58 AM 71.6 °F - 71.2 °F 99% 29.87 in 4.0 mi North 4.6 mph - N/A   Overcast
2:58 AM 71.6 °F - 71.2 °F 99% 29.87 in 6.0 mi North 6.9 mph - N/A   Mostly Cloudy
3:23 AM 71.6 °F - 71.6 °F 100% 29.86 in 9.0 mi North 8.1 mph - N/A   Overcast
3:33 AM 71.6 °F - 71.6 °F 100% 29.86 in 7.0 mi North 10.4 mph - N/A   Overcast
3:58 AM 71.6 °F - 71.2 °F 99% 29.88 in 10.0 mi NNE 9.2 mph - N/A   Overcast
4:03 AM 71.6 °F - 71.6 °F 100% 29.86 in 10.0 mi NNE 12.7 mph - N/A   Mostly Cloudy
4:13 AM 71.6 °F - 71.6 °F 100% 29.87 in 10.0 mi NNE 9.2 mph - N/A   Mostly Cloudy
4:18 AM 71.6 °F - 71.6 °F 100% 29.87 in 10.0 mi NNE 12.7 mph - N/A   Mostly Cloudy
4:38 AM 71.6 °F - 71.6 °F 100% 29.87 in 10.0 mi NNE 9.2 mph - N/A   Overcast
4:58 AM 71.2 °F - 70.9 °F 99% 29.89 in 10.0 mi NNE 5.8 mph - N/A   Overcast
5:03 AM 71.6 °F - 71.6 °F 100% 29.87 in 10.0 mi NNE 5.8 mph - N/A   Overcast
5:13 AM 71.6 °F - 71.6 °F 100% 29.88 in 10.0 mi NNE 6.9 mph - N/A   Overcast
5:23 AM 71.6 °F - 71.6 °F 100% 29.88 in 9.0 mi NNE 8.1 mph - N/A   Overcast
5:33 AM 71.6 °F - 71.6 °F 100% 29.88 in 9.0 mi NNE 8.1 mph - N/A   Overcast
5:43 AM 71.6 °F - 71.6 °F 100% 29.88 in 8.0 mi North 6.9 mph - N/A   Overcast
5:58 AM 71.1 °F - 70.9 °F 99% 29.91 in 7.0 mi NNE 8.1 mph - N/A   Overcast
6:18 AM 71.6 °F - 71.6 °F 100% 29.90 in 8.0 mi NNE 9.2 mph - N/A   Overcast
6:28 AM 71.6 °F - 69.8 °F 94% 29.90 in 6.0 mi NNE 10.4 mph - N/A   Overcast
6:38 AM 71.6 °F - 69.8 °F 94% 29.91 in 6.0 mi NE 10.4 mph - N/A   Overcast
6:43 AM 71.6 °F - 69.8 °F 94% 29.91 in 6.0 mi NNE 9.2 mph - N/A   Overcast
6:58 AM 71.2 °F - 70.7 °F 98% 29.93 in 5.0 mi NE 8.1 mph - N/A   Overcast
7:18 AM 71.6 °F - 71.6 °F 100% 29.93 in 5.0 mi NE 5.8 mph - N/A   Overcast
7:38 AM 71.6 °F - 71.6 °F 100% 29.93 in 5.0 mi NE 5.8 mph - N/A   Overcast
7:58 AM 71.6 °F - 71.1 °F 98% 29.96 in 4.0 mi NE 5.8 mph - N/A   Overcast
8:38 AM 71.6 °F - 71.6 °F 100% 29.95 in 4.0 mi North 8.1 mph - N/A   Overcast
8:53 AM 73.4 °F - 71.6 °F 94% 29.95 in 4.0 mi NNE 8.1 mph - N/A   Overcast
8:58 AM 72.7 °F - 71.8 °F 97% 29.97 in 5.0 mi NNE 8.1 mph - N/A   Overcast
9:03 AM 73.4 °F - 71.6 °F 94% 29.96 in 4.0 mi NNE 8.1 mph - N/A   Overcast
9:13 AM 73.4 °F - 71.6 °F 94% 29.96 in 4.0 mi NNE 8.1 mph - N/A Rain Light Rain
9:23 AM 73.4 °F - 71.6 °F 94% 29.96 in 3.0 mi NNE 8.1 mph - N/A Rain Light Rain
9:28 AM 73.4 °F - 71.6 °F 94% 29.96 in 4.0 mi NE 8.1 mph - N/A   Light Drizzle
9:38 AM 73.4 °F - 71.6 °F 94% 29.96 in 4.0 mi NNE 5.8 mph - N/A   Light Drizzle
9:43 AM 73.4 °F - 71.6 °F 94% 29.96 in 4.0 mi NNE 9.2 mph - N/A   Overcast
9:53 AM 73.4 °F - 71.6 °F 94% 29.96 in 6.0 mi NE 8.1 mph - N/A   Overcast
9:58 AM 73.6 °F - 72.3 °F 96% 29.98 in 6.0 mi NE 9.2 mph - 0.01 in   Overcast
10:18 AM 73.4 °F - 71.6 °F 94% 29.97 in 10.0 mi NNE 8.1 mph - N/A   Overcast
10:43 AM 75.2 °F - 71.6 °F 89% 29.98 in 10.0 mi NNE 9.2 mph - N/A   Overcast
10:58 AM 75.2 °F - 70.9 °F 86% 30.00 in 10.0 mi NNE 10.4 mph - N/A   Overcast
11:58 AM 77.2 °F - 70.2 °F 79% 30.01 in 10.0 mi NE 9.2 mph - N/A   Overcast
12:13 PM 78.8 °F - 69.8 °F 74% 29.99 in 10.0 mi NNE 9.2 mph - N/A   Mostly Cloudy
12:58 PM 78.8 °F - 69.6 °F 73% 30.01 in 10.0 mi NE 12.7 mph - N/A   Mostly Cloudy
1:58 PM 80.1 °F 82.9 °F 68.9 °F 69% 30.02 in 10.0 mi NE 8.1 mph - N/A   Mostly Cloudy
2:58 PM 82.4 °F 85.4 °F 68.4 °F 62% 30.01 in 10.0 mi NE 8.1 mph - N/A   Partly Cloudy
3:58 PM 83.7 °F 86.5 °F 67.3 °F 58% 30.01 in 10.0 mi ENE 9.2 mph - N/A   Clear
4:58 PM 83.1 °F 85.7 °F 66.7 °F 58% 30.00 in 10.0 mi North 5.8 mph - N/A   Clear
5:58 PM 82.9 °F 85.2 °F 66.2 °F 57% 30.01 in 10.0 mi East 8.1 mph - N/A   Clear
6:58 PM 79.3 °F - 66.6 °F 65% 30.01 in 10.0 mi East 3.5 mph - N/A   Clear
7:58 PM 74.8 °F - 69.3 °F 83% 30.03 in 10.0 mi ESE 4.6 mph - N/A   Clear
8:58 PM 73.2 °F - 69.8 °F 89% 30.04 in 10.0 mi SSE 3.5 mph - N/A   Partly Cloudy
9:58 PM 72.1 °F - 69.4 °F 91% 30.05 in 10.0 mi SE 3.5 mph - N/A   Mostly Cloudy
10:58 PM 71.1 °F - 68.5 °F 92% 30.05 in 10.0 mi SSE 5.8 mph - N/A   Clear
11:58 PM 69.8 °F - 68.0 °F 94% 30.06 in 10.0 mi SE 6.9 mph - N/A   Clear